TYCHE

Last updated on Mon Sep 16 2024 00:02:03 GMT+0000 (Coordinated Universal Time)

1 60496U 24149AE 24258.90240966 .00011647 00000+0 57118-3 0 9995 2 60496 97.4411 334.0062 0005710 37.3612 322.8018 15.18258389 4419
UTC large
Height (km)
Speed (km/s)
/
Latitude / Longitude
Inclination (degrees)
Orbital Period (minutes)
Azimuth
Elevation
Range (km)
Doppler Factor

Next 0 passes for location: London (51.5072 / 0.1276)

Sorry there are no passes over London.